Flag for Germany Weather past 2 weeks in Bocholt, North Rhine-Westphalia, Germany

Now
66 °F

Clear.


Feels Like: 66 °F
Forecast: 53 / 63 °F
Wind: 3 mph from North

Location: Niederrhein

Current Time: Sep 20, 2014 at 8:41:28 PM

Latest Report: Sep 20, 2014 at 7:50 PM


Visibility: 4 mi

Pressure: 29.95 "Hg

Humidity: 88%

Dew point: 63 °F

Location of BocholtLocation

Historic Weather in Bocholt — Graph

°F

Bocholt temperature yesterday

Maximum temperature yesterday: 73 °F (at 3:20 PM)
Minimum temperature yesterday: 61 °F (at 5:20 AM)
Average temperature yesterday: 66 °F

Past Weeks' High & Low Weather Summary

 TemperatureHumidityPressure
High79 °F (Sep 17, 3:50 PM)100% (Sep 5, 10:50 PM)30.27 "Hg (Sep 5, 10:50 PM)
Low50 °F (Sep 9, 5:20 AM)43% (Sep 8, 5:20 PM)29.83 "Hg (Sep 18, 4:50 AM)
Average64 °F81%30.03 "Hg
* Reported Sep 5 7:20 PM — Sep 20 7:50 PM, Bocholt, Weather by CustomWeather, © 2014

Note: Actual official high and low records may vary slightly from our data, if they occured in-between our weather recording intervals... More about our weather records

Advertising

Bocholt weather history for previous 24 hours

 ConditionsComfort  
Time TempWeatherWind HumidityBarometerVisibility
7:50 PM
Sep 20
66 °FClear.3 mph88%29.95 "Hg4 mi
3:20 PM75 °FFog.8 mph69%29.92 "Hg3 mi
2:50 PM75 °FFog.6 mph69%29.95 "Hg3 mi
2:20 PM73 °FFog.1 mph74%29.95 "Hg2 mi
1:50 PM72 °FFog.5 mph78%29.95 "Hg3 mi
1:20 PM72 °FFog.5 mph78%29.95 "Hg3 mi
12:20 PM72 °FPartly sunny.5 mph78%29.95 "Hg4 mi
11:50 AM70 °FPartly sunny.5 mph83%29.95 "Hg4 mi
11:20 AM68 °FClear.3 mph83%29.95 "Hg4 mi
10:50 AM68 °FFog.3 mph88%29.95 "Hg3 mi
9:50 AM61 °FFog.1 mph100%29.95 "Hg1 mi
8:50 AM61 °FLight rain. Fog.2 mph100%29.92 "Hg3 mi
8:20 AM59 °FDrizzle. Fog.2 mph100%29.92 "Hg3 mi
7:50 AM59 °FThundershowers. Passing clouds.No wind100%29.92 "Hg4 mi
7:20 AM61 °FThundershowers. Passing clouds.3 mph100%29.92 "Hg4 mi
6:50 AM57 °FRain. Fog.3 mph100%29.92 "Hg1 mi
6:20 AM55 °FFog.No wind100%29.92 "Hg0 mi
5:50 AM57 °FFog.No wind100%29.92 "Hg0 mi
5:20 AM57 °FFog.1 mph100%29.92 "Hg0 mi
4:50 AM57 °FFog.No wind100%29.92 "Hg1 mi
10:50 PM
Sep 19
64 °FFog.No wind100%29.92 "Hg2 mi
10:20 PM63 °FFog.No wind100%29.92 "Hg2 mi
9:50 PM64 °FFog.2 mph100%29.92 "Hg2 mi
9:20 PM66 °FFog.2 mph94%29.92 "Hg2 mi
8:50 PM66 °FFog.2 mph100%29.89 "Hg3 mi
8:20 PM66 °FFog.2 mph94%29.89 "Hg3 mi
Weather by CustomWeather, © 2014

See weather overviewHow to use our weather pages